ONEWEB-0352 (49216 NORAD) Tracking and Keplerian Element Data

This shows tracking and keplerian element data for the satellite.

Feedback or suggestion? Click here.




ElementValue
Catalog49216
NameONEWEB-0352
Epoch Orbit779
Epoch Day300.83334491
Epoch Year2021
RAAN313.0082
Inclination87.1999
Eccentricity0.0019822
Argument of Perigee139.6548
Mean Anonmoly112.2141
Mean Motion14.870441
Decay Rate0.00030957
L11 49216U 21083AG 21300.83334491 .00030957 00000-0 34282-2 0 9992
L22 49216 87.1999 313.0082 0019822 139.6548 112.2141 14.87044100 7796

Live tracking and technical data element details for ONEWEB-0352 (NORAD 49216). ONEWEB-0352 can be tracked NOW for your location showing map with azimuth and elevation plus other details from your city location.

Track the satellite on the map from your city or location and see movement details for azimuth, elevation, latitude, longitude, range, height, and movement on the map or in text.







IsCatalogInMostPopularTable: catalog: 49216, numindb: 10
Update: records affected: 1



GetName: 49216 ONEWEB-0352

Hit Count: updated at: Thu, 28 Oct 2021 11:23:07 GMT